Wind_Speed
28 30 31 33 35 36 37 38 39 40 41 42 43 44 45 45 46 47 48 49 50 52 53 54 56 58 60 62 64 66 68 70 73 75 77 80 82 84 86 87 87 87 87
31 32 34 36 37 38 39 40 41 42 43 44 45 46 47 48 49 50 51 52 54 55 57 58 59 61 62 64 66 69 71 73 75 78 80 83 86 88 90 92 94 94 94
35 36 37 39 40 41 42 43 44 45 45 46 47 48 49 51 52 53 54 56 57 59 60 62 63 65 66 67 69 72 74 77 79 82 85 87 90 93 95 97 100 101 102
38 39 40 41 43 44 46 47 47 48 48 48 49 50 51 53 54 56 58 59 61 62 64 65 66 68 69 70 72 74 77 80 83 86 89 92 95 97 100 102 104 107 109
40 41 43 44 45 47 49 50 51 51 51 51 51 52 54 55 56 58 60 62 64 65 66 68 68 70 71 73 75 77 80 83 87 90 93 96 98 100 102 104 107 110 114
43 44 46 47 48 50 52 53 53 53 53 53 53 54 55 57 59 60 62 64 66 67 68 69 70 71 73 74 77 79 82 86 89 92 95 97 98 99 101 103 106 110 115
46 47 48 49 51 52 54 55 55 55 56 56 56 56 57 58 60 62 63 65 67 68 69 71 72 73 74 76 78 81 84 87 89 92 94 95 96 96 97 98 101 106 112
49 49 51 52 53 55 57 57 57 57 57 58 58 58 59 60 60 61 64 66 68 69 71 72 73 75 76 78 79 82 85 87 89 91 91 91 90 90 90 91 93 98 105
52 53 53 55 55 57 58 59 59 59 59 59 59 60 61 62 63 63 64 67 69 70 72 73 75 77 79 80 81 83 85 86 86 86 85 83 82 80 80 81 84 88 96
55 55 56 57 58 58 60 60 60 60 60 60 60 61 63 64 65 65 66 68 69 71 72 74 76 78 81 82 83 84 84 84 82 80 77 75 72 70 69 70 73 78 86
58 58 59 60 60 60 61 62 62 62 61 61 62 63 64 66 67 67 66 68 70 71 73 75 77 79 81 82 83 83 82 79 76 73 70 67 64 62 61 61 64 69 77
59 60 62 62 62 61 62 63 63 63 62 62 63 65 66 67 68 68 68 68 69 70 73 75 78 80 81 82 82 81 78 74 70 67 64 61 58 57 55 56 59 64 70
60 61 63 63 62 62 63 64 65 64 64 64 65 66 67 68 69 70 70 69 68 68 71 75 78 80 80 81 80 78 74 69 65 62 59 57 54 52 51 51 54 59 65
61 62 62 63 64 64 65 65 65 65 65 65 66 67 68 69 69 70 70 70 69 67 70 73 76 78 79 79 78 75 70 65 61 58 56 54 51 49 47 46 49 54 61
63 63 63 63 65 65 66 66 66 66 66 66 66 67 68 69 70 70 70 71 70 68 69 70 73 75 77 76 74 72 67 62 57 54 53 51 49 46 42 42 46 50 56
63 64 64 65 66 66 66 67 67 66 66 65 65 66 68 69 70 70 70 70 70 70 70 70 72 72 73 73 71 69 65 59 55 52 51 49 47 43 40 40 43 48 54
64 65 65 66 66 66 66 67 66 65 64 64 65 66 68 69 69 69 69 69 70 71 72 70 70 70 70 69 67 65 61 57 53 52 50 48 46 42 38 40 43 48 52
64 65 66 66 65 65 65 66 65 64 64 64 65 66 67 68 68 68 69 68 69 70 72 72 69 68 67 66 64 61 58 55 52 51 50 48 45 41 37 39 42 47 52
63 64 65 65 64 64 64 64 64 63 63 63 64 65 66 68 67 68 67 67 68 69 71 71 69 67 65 63 61 58 55 52 51 50 49 47 44 40 37 38 42 48 54
62 63 63 62 63 63 62 62 61 61 61 62 62 64 66 67 66 66 66 66 67 68 69 69 68 66 63 62 60 56 53 50 49 49 48 45 42 39 36 37 41 51 57
60 60 60 61 61 61 60 59 59 60 60 60 61 64 65 66 65 65 65 64 65 66 67 67 66 64 62 61 58 55 52 49 47 48 47 44 42 38 35 36 40 51 59
57 57 58 58 58 57 56 57 57 58 58 59 61 63 64 64 64 64 63 63 64 65 65 65 64 62 61 59 56 53 52 49 46 46 47 43 40 36 33 34 40 51 60
54 54 54 55 54 54 55 55 56 56 56 57 59 60 61 61 62 62 61 61 61 62 63 63 62 60 60 58 55 51 50 48 46 45 45 40 38 34 30 31 40 50 62
52 53 53 53 53 53 54 55 55 55 56 57 58 59 59 59 60 60 59 59 59 59 59 60 60 58 57 55 52 50 48 45 43 43 43 38 34 31 27 29 38 50 63
52 53 53 53 53 52 53 53 54 55 56 56 57 58 58 58 58 58 57 57 57 56 56 57 57 56 55 53 50 48 46 44 41 40 39 36 31 27 23 26 36 50 62
53 54 54 53 53 53 53 54 54 55 55 55 56 56 57 56 56 56 56 56 55 54 54 54 53 53 52 50 47 46 44 41 39 36 34 32 28 24 20 24 34 49 61
Wind_Direction
313 313 313 312 310 308 306 303 301 298 296 295 293 292 292 292 292 292 291 291 290 289 288 287 285 283 281 278 276 274 272 270 267 265 263 261 258 256 254 251 249 249 249
309 311 312 313 312 311 309 306 304 301 299 297 296 295 294 294 294 294 294 294 293 292 291 290 288 287 285 283 281 279 277 276 274 272 270 267 264 261 258 254 250 248 246
306 308 309 311 311 311 310 308 307 304 302 300 298 297 296 296 296 296 296 296 295 294 293 292 291 290 288 287 286 284 283 282 280 279 276 274 271 267 263 258 253 249 246
304 306 307 308 309 310 311 310 308 306 304 301 300 298 298 297 297 297 297 297 296 296 295 294 293 292 291 290 290 289 288 286 285 284 282 280 277 272 267 261 255 250 245
303 304 305 306 308 309 310 310 308 307 305 302 301 299 298 298 298 298 298 297 297 297 296 295 295 294 294 293 293 292 292 290 289 288 286 284 280 275 270 263 257 250 245
302 302 303 304 306 307 309 309 308 306 305 303 301 300 300 299 299 299 299 299 299 298 298 297 297 296 296 296 296 295 294 294 293 291 289 286 282 277 271 264 257 249 243
300 301 302 303 304 306 307 308 306 306 305 303 302 300 300 300 301 300 300 300 300 299 299 299 299 298 298 298 298 298 297 297 295 293 291 287 283 277 271 264 256 249 242
299 300 301 302 303 304 306 306 306 305 305 304 302 301 300 299 299 300 301 301 301 301 301 301 302 302 301 301 301 300 300 299 297 295 292 288 283 277 270 263 257 249 241
298 298 299 300 301 303 304 305 305 304 304 304 302 302 301 301 301 300 301 302 302 303 303 304 304 305 304 304 304 303 302 301 299 296 292 288 283 277 270 263 255 248 240
297 297 297 298 300 301 302 303 304 304 304 303 302 302 302 302 301 301 302 302 302 303 304 305 306 306 306 306 306 306 305 303 300 297 293 289 284 278 271 262 254 246 239
295 296 296 296 298 300 300 301 303 303 303 303 302 303 303 302 302 302 302 303 303 304 305 306 307 307 308 308 308 307 306 304 302 298 295 291 286 279 271 261 251 243 237
294 294 294 295 297 299 299 301 302 303 304 303 303 303 303 303 303 302 303 303 304 305 306 307 308 309 309 309 309 308 307 305 303 299 297 294 289 281 271 260 248 239 234
293 293 293 295 296 297 298 300 302 304 303 303 303 303 303 303 303 303 304 304 305 306 307 308 309 310 310 310 310 309 308 306 304 300 298 297 292 283 273 260 247 237 231
292 292 292 294 296 297 298 300 302 303 303 303 303 303 303 303 304 304 305 305 306 307 308 309 310 311 311 311 311 310 309 307 304 301 299 297 294 285 273 259 246 237 230
291 292 293 294 295 297 298 300 302 303 302 303 303 303 303 304 304 305 306 306 307 308 310 311 311 311 311 311 311 310 309 307 304 302 300 297 295 287 272 257 245 235 228
292 293 293 293 295 297 298 300 301 302 302 303 303 303 303 304 305 306 306 307 308 309 312 313 312 312 312 312 311 310 309 307 305 303 301 298 296 288 271 255 242 231 225
291 292 293 294 295 297 298 299 300 301 302 302 302 302 303 304 305 306 307 307 309 310 313 314 313 313 313 312 311 310 309 307 305 304 302 299 296 287 272 254 239 227 220
292 293 293 295 296 296 297 299 299 300 300 301 301 301 303 304 305 306 307 308 309 311 313 314 315 314 314 313 312 311 309 307 306 305 302 300 296 287 272 254 237 224 215
292 293 294 294 295 296 297 298 299 299 299 299 300 301 303 304 305 306 307 308 310 311 313 314 316 316 315 314 313 311 310 308 306 305 303 301 296 288 272 254 234 220 211
292 293 293 293 294 295 295 296 297 297 298 299 300 302 303 304 306 306 307 308 310 312 313 315 316 316 316 316 314 313 311 308 307 306 305 302 298 288 274 254 233 216 208
292 293 294 294 294 294 294 295 295 296 298 298 300 302 303 304 305 306 308 309 310 312 313 315 317 317 318 317 316 314 313 311 309 308 306 304 299 290 274 253 229 213 206
294 294 295 295 295 294 294 295 296 297 298 298 300 302 303 304 305 307 308 309 311 312 314 315 317 318 318 318 316 315 314 313 312 308 307 306 299 293 274 250 225 211 203
295 296 297 297 297 296 295 295 296 298 298 299 300 301 303 304 305 307 308 310 311 313 314 315 317 318 318 318 317 316 315 314 313 311 309 308 300 293 275 246 222 210 201
296 296 297 297 297 297 296 296 297 298 299 299 300 301 303 304 306 307 308 310 311 313 314 316 317 317 318 318 317 317 316 315 314 312 311 309 302 293 275 244 221 208 200
297 297 297 296 297 297 296 296 297 299 299 300 300 301 303 304 306 307 309 310 312 313 314 315 316 317 318 319 318 317 317 316 316 315 313 311 305 295 272 242 219 205 199
297 297 297 296 297 296 296 296 297 298 299 300 301 302 303 304 306 307 309 311 312 314 315 316 316 317 318 318 317 317 318 318 318 317 315 313 308 297 270 240 218 204 198
Height
5813 5810 5806 5802 5798 5794 5791 5787 5783 5780 5776 5772 5769 5765 5761 5758 5755 5752 5749 5746 5743 5740 5737 5735 5732 5730 5727 5725 5723 5722 5721 5720 5720 5721 5722 5724 5727 5730 5735 5739 5744 5749 5754
5806 5803 5799 5795 5790 5786 5782 5778 5774 5770 5766 5761 5757 5753 5749 5745 5741 5737 5734 5731 5728 5724 5721 5718 5714 5711 5708 5705 5702 5700 5697 5696 5694 5694 5695 5696 5699 5702 5706 5711 5717 5724 5731
5799 5795 5791 5786 5782 5778 5773 5769 5764 5759 5755 5750 5745 5741 5736 5731 5727 5723 5719 5715 5711 5707 5703 5699 5696 5692 5688 5684 5680 5676 5672 5669 5667 5665 5665 5665 5667 5670 5673 5678 5685 5693 5702
5791 5787 5782 5778 5773 5768 5763 5758 5753 5749 5744 5739 5734 5728 5723 5718 5713 5708 5704 5699 5695 5690 5686 5681 5677 5672 5667 5662 5658 5652 5647 5643 5639 5635 5633 5632 5631 5632 5635 5640 5648 5657 5668
5782 5777 5773 5768 5763 5758 5753 5748 5742 5737 5732 5727 5721 5716 5710 5705 5699 5694 5688 5683 5677 5672 5667 5662 5657 5652 5646 5641 5635 5628 5622 5616 5610 5604 5599 5595 5592 5591 5593 5597 5604 5615 5628
5773 5768 5763 5758 5753 5748 5742 5737 5731 5725 5719 5714 5709 5703 5697 5691 5685 5678 5672 5666 5660 5654 5648 5642 5637 5631 5625 5619 5612 5604 5596 5588 5580 5572 5565 5558 5552 5549 5548 5551 5558 5568 5582
5763 5758 5753 5747 5742 5737 5731 5725 5719 5713 5707 5701 5695 5690 5684 5678 5670 5663 5656 5649 5642 5636 5629 5622 5616 5610 5604 5597 5589 5579 5569 5559 5549 5539 5529 5520 5513 5507 5505 5506 5511 5521 5535
5752 5747 5742 5736 5730 5725 5719 5713 5706 5700 5693 5687 5681 5674 5669 5665 5659 5650 5641 5632 5624 5617 5609 5602 5594 5587 5580 5573 5565 5554 5542 5530 5517 5505 5494 5484 5475 5469 5465 5466 5470 5478 5490
5741 5736 5730 5724 5718 5712 5706 5700 5693 5687 5680 5673 5666 5660 5653 5647 5641 5635 5626 5616 5606 5597 5589 5581 5572 5563 5555 5547 5538 5527 5514 5501 5487 5474 5461 5450 5442 5436 5431 5430 5433 5440 5451
5729 5724 5718 5712 5706 5700 5693 5687 5680 5674 5666 5659 5652 5645 5638 5630 5623 5617 5610 5600 5590 5579 5570 5560 5551 5541 5531 5521 5511 5500 5486 5473 5459 5445 5433 5423 5414 5407 5403 5401 5403 5409 5418
5716 5710 5704 5698 5692 5686 5680 5673 5667 5660 5653 5645 5637 5630 5622 5614 5606 5599 5594 5583 5572 5561 5550 5540 5530 5519 5509 5497 5486 5474 5460 5446 5433 5421 5409 5399 5390 5383 5378 5376 5378 5383 5391
5703 5697 5690 5684 5679 5672 5665 5659 5652 5645 5638 5630 5622 5614 5605 5597 5589 5581 5575 5567 5557 5545 5531 5519 5508 5498 5486 5474 5462 5449 5436 5423 5411 5399 5388 5378 5369 5361 5357 5355 5356 5361 5369
5689 5683 5675 5670 5664 5658 5651 5644 5637 5630 5622 5614 5606 5597 5589 5580 5571 5562 5555 5548 5540 5530 5516 5501 5487 5475 5464 5452 5440 5427 5414 5402 5390 5379 5369 5359 5350 5343 5338 5336 5338 5343 5349
5674 5667 5661 5655 5649 5643 5636 5628 5621 5614 5606 5598 5590 5581 5572 5563 5554 5544 5536 5528 5521 5513 5500 5485 5469 5455 5443 5430 5418 5405 5394 5383 5371 5361 5351 5342 5333 5326 5321 5319 5322 5326 5333
5658 5652 5646 5640 5633 5627 5620 5613 5606 5598 5590 5582 5573 5564 5555 5546 5536 5527 5517 5508 5500 5492 5484 5469 5453 5438 5423 5410 5398 5385 5374 5365 5354 5345 5335 5326 5318 5311 5306 5304 5306 5311 5318
5642 5636 5631 5624 5618 5611 5604 5597 5590 5582 5574 5566 5557 5548 5538 5529 5520 5510 5500 5490 5480 5471 5463 5452 5437 5422 5407 5393 5379 5367 5356 5347 5338 5329 5319 5311 5303 5297 5292 5290 5291 5296 5304
5627 5620 5614 5608 5602 5595 5588 5581 5574 5566 5558 5550 5541 5532 5522 5512 5503 5493 5483 5473 5462 5452 5443 5434 5419 5405 5391 5376 5363 5350 5339 5330 5322 5314 5304 5296 5289 5283 5278 5276 5277 5282 5290
5611 5604 5598 5592 5586 5579 5572 5565 5557 5550 5542 5534 5525 5516 5507 5497 5487 5477 5467 5456 5446 5434 5424 5414 5403 5389 5375 5361 5348 5336 5325 5315 5307 5299 5290 5282 5275 5269 5265 5263 5264 5269 5277
5594 5588 5582 5575 5569 5563 5556 5549 5541 5534 5526 5518 5509 5500 5491 5481 5472 5461 5451 5441 5430 5419 5407 5396 5386 5373 5361 5347 5334 5323 5312 5302 5293 5285 5277 5269 5261 5256 5252 5250 5252 5257 5265
5578 5572 5565 5559 5553 5546 5540 5533 5526 5518 5510 5502 5494 5485 5476 5466 5457 5446 5436 5425 5414 5404 5392 5380 5370 5358 5346 5333 5319 5309 5300 5290 5281 5271 5263 5255 5248 5243 5239 5237 5239 5245 5254
5562 5556 5549 5543 5537 5530 5524 5517 5510 5503 5495 5487 5479 5470 5460 5451 5441 5431 5421 5411 5400 5389 5377 5365 5354 5343 5331 5318 5306 5295 5286 5278 5269 5257 5249 5243 5235 5230 5226 5225 5227 5234 5243
5547 5540 5534 5527 5521 5514 5508 5501 5494 5487 5480 5472 5464 5455 5446 5436 5427 5416 5406 5396 5386 5374 5363 5351 5340 5329 5317 5305 5294 5283 5273 5265 5258 5249 5237 5231 5223 5218 5214 5213 5216 5223 5233
5532 5525 5519 5512 5506 5499 5492 5485 5479 5472 5465 5457 5448 5440 5431 5422 5412 5403 5393 5383 5372 5360 5349 5338 5327 5316 5305 5294 5283 5273 5262 5252 5244 5236 5226 5220 5212 5206 5203 5202 5206 5212 5223
5517 5511 5505 5498 5491 5485 5478 5471 5464 5457 5450 5442 5434 5425 5417 5408 5398 5389 5380 5371 5360 5349 5337 5326 5316 5305 5293 5282 5271 5262 5252 5244 5236 5226 5215 5209 5202 5196 5193 5193 5196 5203 5214
5503 5497 5490 5483 5477 5471 5463 5456 5449 5443 5436 5428 5420 5411 5403 5394 5385 5376 5368 5359 5349 5338 5326 5315 5304 5293 5282 5271 5260 5251 5243 5234 5227 5218 5207 5200 5194 5188 5186 5186 5188 5195 5206
5489 5482 5476 5469 5463 5456 5449 5442 5435 5429 5422 5414 5406 5398 5389 5381 5372 5363 5354 5346 5337 5327 5316 5306 5295 5284 5272 5262 5252 5242 5234 5225 5218 5211 5202 5193 5187 5182 5180 5180 5181 5188 5199